Вернуться в каталог

SL-16 DEB

АктивенLEO
NORAD 23089·DEBRIS·🇷🇺 Russia

Запущен Apr 23, 1994 с Baikonur Cosmodrome

Loading…

Ближайшие Пролёты (ближайшие 24 часа)

TLE

СвежийSource: Space-Track

Эпоха: Sep 14, 2026, 10:22 UTC

1 23089U 94023C   26257.43248519  .00000039  00000-0  74888-4 0  9999
2 23089  71.0206 267.8177 0198237 193.2499 166.3355 13.74307053623918

Отслеживайте SL-16 DEB в реальном времени с AllMySat

Download on the App Store